Time,TemperatureF,DewpointF,PressureIn,WindDirection,WindDirectionDegrees,WindSpeedMPH,WindSpeedGustMPH,Humidity,HourlyPrecipIn,Conditions,Clouds,dailyrainin,SolarRadiationWatts/m^2,SoftwareType,DateUTC
2013-11-30 00:01:00,67.4,63.1,29.88,SE,126,0.0,0.0,86,0.00,CLR,SCT,0.00,0.0,WeatherDisplay:10.37,2013-11-30 10:01:00,
2013-11-30 00:10:00,67.0,62.7,29.88,SE,126,0.0,0.0,86,0.00,CLR,SCT,0.00,0.0,WeatherDisplay:10.37,2013-11-30 10:10:00,
2013-11-30 00:20:00,66.6,62.2,29.88,SE,126,0.0,0.0,86,0.00,CLR,SCT,0.00,0.0,WeatherDisplay:10.37,2013-11-30 10:20:00,
2013-11-30 00:30:00,66.0,61.7,29.88,SE,126,1.0,3.0,86,0.00,CLR,SCT,0.00,0.0,WeatherDisplay:10.37,2013-11-30 10:30:00,
2013-11-30 00:40:00,65.7,62.0,29.88,South,179,5.0,7.0,88,0.00,CLR,SCT,0.00,0.0,WeatherDisplay:10.37,2013-11-30 10:40:00,
2013-11-30 00:50:00,66.6,62.6,29.88,SSW,201,6.0,9.0,87,0.00,CLR,SCT,0.00,0.0,WeatherDisplay:10.37,2013-11-30 10:50:00,
2013-11-30 01:01:00,67.3,63.0,29.88,SSW,205,6.0,9.0,86,0.00,CLR,SCT,0.00,0.0,WeatherDisplay:10.37,2013-11-30 11:01:00,
2013-11-30 01:10:00,67.8,62.8,29.88,SSW,203,7.0,12.0,84,0.00,CLR,SCT,0.00,0.0,WeatherDisplay:10.37,2013-11-30 11:10:00,
2013-11-30 01:20:00,68.2,63.5,29.88,SSW,202,8.0,12.0,85,0.00,CLR,SCT,0.00,0.0,WeatherDisplay:10.37,2013-11-30 11:20:00,
2013-11-30 01:30:00,68.5,64.1,29.88,South,191,6.0,12.0,86,0.00,CLR,SCT,0.00,0.0,WeatherDisplay:10.37,2013-11-30 11:30:00,
2013-11-30 01:40:00,68.8,65.1,29.88,SSW,195,7.0,12.0,88,0.00,CLR,SCT,0.00,0.0,WeatherDisplay:10.37,2013-11-30 11:40:00,
2013-11-30 01:50:00,68.9,64.9,29.87,South,186,6.0,14.0,87,0.00,CLR,SCT,0.00,0.0,WeatherDisplay:10.37,2013-11-30 11:50:00,
2013-11-30 02:01:00,68.8,64.8,29.87,SSW,197,6.0,10.0,87,0.00,CLR,SCT,0.00,0.0,WeatherDisplay:10.37,2013-11-30 12:01:00,
2013-11-30 02:10:00,69.0,64.6,29.87,SSW,206,6.0,13.0,86,0.00,CLR,SCT,0.00,0.0,WeatherDisplay:10.37,2013-11-30 12:10:00,
2013-11-30 02:20:00,69.1,65.1,29.87,SSW,212,8.0,15.0,87,0.00,CLR,SCT,0.00,0.0,WeatherDisplay:10.37,2013-11-30 12:20:00,
2013-11-30 02:30:00,69.1,65.7,29.87,SSW,210,9.0,17.0,89,0.00,CLR,SCT,0.00,0.0,WeatherDisplay:10.37,2013-11-30 12:30:00,
2013-11-30 02:40:00,69.0,65.6,29.87,SSW,208,8.0,17.0,89,0.00,CLR,SCT,0.00,0.0,WeatherDisplay:10.37,2013-11-30 12:40:00,
2013-11-30 02:50:00,68.8,65.8,29.87,SSW,195,7.0,13.0,90,0.00,CLR,SCT,0.00,0.0,WeatherDisplay:10.37,2013-11-30 12:50:00,
2013-11-30 03:01:00,68.7,65.6,29.87,SSW,201,9.0,12.0,90,0.00,CLR,SCT,0.00,0.0,WeatherDisplay:10.37,2013-11-30 13:01:00,
2013-11-30 03:10:00,68.7,65.7,29.87,SSW,209,6.0,12.0,90,0.00,CLR,SCT,0.00,0.0,WeatherDisplay:10.37,2013-11-30 13:10:00,
2013-11-30 03:20:00,68.6,65.5,29.88,SSW,211,0.0,10.0,90,0.00,CLR,SCT,0.00,0.0,WeatherDisplay:10.37,2013-11-30 13:20:00,
2013-11-30 03:30:00,68.3,65.3,29.87,SW,217,0.0,0.0,90,0.00,CLR,SCT,0.00,0.0,WeatherDisplay:10.37,2013-11-30 13:30:00,
2013-11-30 03:40:00,67.9,64.9,29.87,SW,217,2.0,3.0,90,0.00,CLR,SCT,0.00,0.0,WeatherDisplay:10.37,2013-11-30 13:40:00,
2013-11-30 03:50:00,67.4,64.4,29.88,SSW,205,1.0,4.0,90,0.00,CLR,SCT,0.00,0.0,WeatherDisplay:10.37,2013-11-30 13:50:00,
2013-11-30 04:01:00,67.1,63.7,29.87,ESE,112,1.0,5.0,89,0.00,CLR,SCT,0.00,0.0,WeatherDisplay:10.37,2013-11-30 14:01:00,
2013-11-30 04:10:00,67.1,63.1,29.87,ESE,111,0.0,4.0,87,0.00,CLR,SCT,0.00,0.0,WeatherDisplay:10.37,2013-11-30 14:10:00,
2013-11-30 04:20:00,67.1,63.1,29.87,ESE,110,2.0,5.0,87,0.00,CLR,SCT,0.00,0.0,WeatherDisplay:10.37,2013-11-30 14:20:00,
2013-11-30 04:30:00,67.1,62.8,29.88,ESE,110,0.0,3.0,86,0.00,CLR,SCT,0.00,0.0,WeatherDisplay:10.37,2013-11-30 14:30:00,
2013-11-30 04:40:00,67.0,62.7,29.87,ESE,110,0.0,5.0,86,0.00,CLR,SCT,0.00,0.0,WeatherDisplay:10.37,2013-11-30 14:40:00,
2013-11-30 04:50:00,67.0,62.3,29.88,ESE,110,1.0,4.0,85,0.00,CLR,SCT,0.00,0.0,WeatherDisplay:10.37,2013-11-30 14:50:00,
2013-11-30 05:01:00,66.9,61.9,29.88,ESE,110,2.0,5.0,84,0.00,CLR,SCT,0.00,0.0,WeatherDisplay:10.37,2013-11-30 15:01:00,
2013-11-30 05:10:00,66.9,61.9,29.88,ESE,110,0.0,4.0,84,0.00,CLR,SCT,0.00,0.0,WeatherDisplay:10.37,2013-11-30 15:10:00,
2013-11-30 05:20:00,66.9,61.9,29.88,ESE,110,1.0,3.0,84,0.00,CLR,SCT,0.00,0.0,WeatherDisplay:10.37,2013-11-30 15:20:00,
2013-11-30 05:30:00,66.8,62.1,29.88,ESE,110,1.0,4.0,85,0.00,CLR,SCT,0.00,0.0,WeatherDisplay:10.37,2013-11-30 15:30:00,
2013-11-30 05:40:00,66.7,61.7,29.88,ESE,110,2.0,4.0,84,0.00,CLR,SCT,0.00,0.0,WeatherDisplay:10.37,2013-11-30 15:40:00,
2013-11-30 05:50:00,66.6,61.6,29.88,ESE,110,0.0,4.0,84,0.00,CLR,SCT,0.00,0.0,WeatherDisplay:10.37,2013-11-30 15:50:00,
2013-11-30 06:01:00,66.3,61.3,29.88,ESE,110,0.0,3.0,84,0.00,CLR,SCT,0.00,0.0,WeatherDisplay:10.37,2013-11-30 16:01:00,
2013-11-30 06:10:00,66.1,61.1,29.88,ESE,110,0.0,5.0,84,0.00,CLR,SCT,0.00,0.0,WeatherDisplay:10.37,2013-11-30 16:10:00,
2013-11-30 06:20:00,65.9,61.3,29.88,ESE,110,0.0,3.0,85,0.00,CLR,SCT,0.00,0.0,WeatherDisplay:10.37,2013-11-30 16:20:00,
2013-11-30 06:31:00,65.8,61.2,29.88,ESE,110,0.0,2.0,85,0.00,CLR,SCT,0.00,0.0,WeatherDisplay:10.37,2013-11-30 16:31:00,
2013-11-30 06:40:00,65.6,61.3,29.88,ESE,110,0.0,1.0,86,0.00,CLR,SCT,0.00,0.0,WeatherDisplay:10.37,2013-11-30 16:40:00,
2013-11-30 06:50:00,65.4,61.1,29.87,ESE,110,2.0,3.0,86,0.00,CLR,SCT,0.00,0.1,WeatherDisplay:10.37,2013-11-30 16:50:00,
2013-11-30 07:01:00,65.2,60.9,29.88,ESE,110,0.0,3.0,86,0.00,CLR,SCT,0.00,0.8,WeatherDisplay:10.37,2013-11-30 17:01:00,
2013-11-30 07:10:00,65.4,61.1,29.88,ESE,110,2.0,6.0,86,0.00,CLR,SCT,0.00,2.8,WeatherDisplay:10.37,2013-11-30 17:10:00,
2013-11-30 07:20:00,65.9,61.3,29.87,ESE,110,0.0,6.0,85,0.00,CLR,SCT,0.00,7.8,WeatherDisplay:10.37,2013-11-30 17:20:00,
2013-11-30 07:31:00,66.2,61.6,29.87,ESE,110,0.0,4.0,85,0.00,CLR,SCT,0.00,13.0,WeatherDisplay:10.37,2013-11-30 17:31:00,
2013-11-30 07:40:00,66.5,62.2,29.87,ESE,110,0.0,0.0,86,0.00,CLR,SCT,0.00,21.4,WeatherDisplay:10.37,2013-11-30 17:40:00,
2013-11-30 07:50:00,67.0,62.6,29.87,ESE,110,0.0,0.0,86,0.00,CLR,SCT,0.00,25.9,WeatherDisplay:10.37,2013-11-30 17:50:00,
2013-11-30 08:01:00,67.5,63.1,29.86,ESE,110,0.0,0.0,86,0.00,CLR,SCT,0.00,54.8,WeatherDisplay:10.37,2013-11-30 18:01:00,
2013-11-30 08:10:00,68.3,63.6,29.86,ESE,110,0.0,0.0,85,0.00,CLR,SCT,0.00,62.2,WeatherDisplay:10.37,2013-11-30 18:10:00,
2013-11-30 08:20:00,69.4,63.0,29.85,East,100,5.0,8.0,80,0.00,CLR,SCT,0.00,87.7,WeatherDisplay:10.37,2013-11-30 18:20:00,
2013-11-30 08:31:00,71.4,63.1,29.84,East,80,5.0,11.0,75,0.00,CLR,SCT,0.00,90.6,WeatherDisplay:10.37,2013-11-30 18:31:00,
2013-11-30 08:40:00,72.4,62.4,29.83,ENE,75,3.0,10.0,71,0.00,CLR,SCT,0.00,120.5,WeatherDisplay:10.37,2013-11-30 18:40:00,
2013-11-30 08:50:00,73.3,63.4,29.84,ENE,66,1.0,8.0,71,0.00,CLR,SCT,0.00,177.0,WeatherDisplay:10.37,2013-11-30 18:50:00,
2013-11-30 09:01:00,74.4,64.4,29.85,NNE,18,3.0,8.0,71,0.00,CLR,SCT,0.00,158.8,WeatherDisplay:10.37,2013-11-30 19:01:00,
2013-11-30 09:10:00,75.1,67.4,29.86,South,170,13.0,17.0,77,0.00,FEW,SCT,0.00,305.9,WeatherDisplay:10.37,2013-11-30 19:10:00,
2013-11-30 09:20:00,74.0,67.4,29.86,SSW,208,12.0,24.0,80,0.00,FEW,SCT,0.00,356.1,WeatherDisplay:10.37,2013-11-30 19:20:00,
2013-11-30 09:31:00,73.5,67.3,29.86,SW,214,9.0,16.0,81,0.00,FEW,SCT,0.00,338.2,WeatherDisplay:10.37,2013-11-30 19:31:00,
2013-11-30 09:40:00,73.5,67.0,29.87,SW,231,8.0,13.0,80,0.00,FEW,SCT,0.00,228.8,WeatherDisplay:10.37,2013-11-30 19:40:00,
2013-11-30 09:50:00,72.9,66.7,29.88,SW,234,8.0,14.0,81,0.00,FEW,SCT,0.00,238.4,WeatherDisplay:10.37,2013-11-30 19:50:00,
2013-11-30 10:01:00,73.1,66.9,29.88,SW,223,7.0,12.0,81,0.00,FEW,SCT,0.00,248.2,WeatherDisplay:10.37,2013-11-30 20:01:00,
2013-11-30 10:10:00,73.2,67.4,29.87,SW,234,7.0,12.0,82,0.00,SCT,SCT,0.00,264.5,WeatherDisplay:10.37,2013-11-30 20:10:00,
2013-11-30 10:20:00,73.3,67.5,29.87,SW,233,6.0,12.0,82,0.00,SCT,SCT,0.00,374.0,WeatherDisplay:10.37,2013-11-30 20:20:00,
2013-11-30 10:31:00,74.2,66.9,29.87,SW,222,6.0,12.0,78,0.00,SCT,SCT,0.00,462.0,WeatherDisplay:10.37,2013-11-30 20:31:00,
2013-11-30 10:40:00,75.4,67.3,29.88,SW,217,6.0,13.0,76,0.00,SCT,SCT,0.00,514.3,WeatherDisplay:10.37,2013-11-30 20:40:00,
2013-11-30 10:50:00,75.9,66.6,29.88,SW,232,7.0,13.0,73,0.00,SCT,SCT,0.00,681.4,WeatherDisplay:10.37,2013-11-30 20:50:00,
2013-11-30 11:01:00,76.7,67.0,29.88,SW,233,10.0,15.0,72,0.00,SCT,SCT,0.00,738.8,WeatherDisplay:10.37,2013-11-30 21:01:00,
2013-11-30 11:10:00,77.5,67.0,29.88,SW,217,8.0,13.0,70,0.00,SCT,SCT,0.00,752.2,WeatherDisplay:10.37,2013-11-30 21:10:00,
2013-11-30 11:20:00,77.9,66.9,29.88,SW,224,6.0,10.0,69,0.00,SCT,SCT,0.00,562.0,WeatherDisplay:10.37,2013-11-30 21:20:00,
2013-11-30 11:31:00,77.6,66.6,29.88,WSW,242,5.0,8.0,69,0.00,SCT,SCT,0.00,456.5,WeatherDisplay:10.37,2013-11-30 21:31:00,
2013-11-30 11:40:00,77.4,65.6,29.88,West,262,3.0,8.0,67,0.00,SCT,SCT,0.00,469.9,WeatherDisplay:10.37,2013-11-30 21:40:00,
2013-11-30 11:50:00,77.3,67.6,29.86,West,269,5.0,10.0,72,0.00,SCT,SCT,0.00,740.7,WeatherDisplay:10.37,2013-11-30 21:50:00,
2013-11-30 12:01:00,77.2,67.9,29.87,West,281,7.0,10.0,73,0.00,SCT,SCT,0.00,581.5,WeatherDisplay:10.37,2013-11-30 22:01:00,
2013-11-30 12:10:00,77.2,67.8,29.86,WNW,287,5.0,9.0,73,0.00,SCT,SCT,0.00,470.5,WeatherDisplay:10.37,2013-11-30 22:10:00,
2013-11-30 12:20:00,76.9,68.0,29.87,West,278,1.0,7.0,74,0.00,SCT,SCT,0.00,443.4,WeatherDisplay:10.37,2013-11-30 22:20:00,
2013-11-30 12:31:00,77.0,66.5,29.86,WSW,251,0.0,5.0,70,0.00,SCT,SCT,0.00,542.9,WeatherDisplay:10.37,2013-11-30 22:31:00,
2013-11-30 12:40:00,77.1,65.7,29.86,West,268,5.0,6.0,68,0.00,SCT,SCT,0.00,401.6,WeatherDisplay:10.37,2013-11-30 22:40:00,
2013-11-30 12:50:00,76.9,68.0,29.86,WNW,290,6.0,10.0,74,0.00,SCT,SCT,0.00,462.1,WeatherDisplay:10.37,2013-11-30 22:50:00,
2013-11-30 13:01:00,76.5,67.6,29.86,NNW,327,1.0,10.0,74,0.00,SCT,SCT,0.00,379.1,WeatherDisplay:10.37,2013-11-30 23:01:00,
2013-11-30 13:10:00,75.8,66.9,29.86,North,0,2.0,5.0,74,0.00,SCT,SCT,0.00,324.1,WeatherDisplay:10.37,2013-11-30 23:10:00,
2013-11-30 13:20:00,75.7,66.8,29.85,NE,45,1.0,7.0,74,0.00,SCT,SCT,0.00,347.3,WeatherDisplay:10.37,2013-11-30 23:20:00,
2013-11-30 13:31:00,75.7,67.6,29.85,NNE,17,3.0,6.0,76,0.00,SCT,SCT,0.00,357.6,WeatherDisplay:10.37,2013-11-30 23:31:00,
2013-11-30 13:40:00,75.5,67.4,29.84,NNE,16,2.0,6.0,76,0.00,SCT,SCT,0.00,311.3,WeatherDisplay:10.37,2013-11-30 23:40:00,
2013-11-30 13:50:00,75.3,67.6,29.83,NNE,18,2.0,7.0,77,0.00,SCT,SCT,0.00,266.3,WeatherDisplay:10.37,2013-11-30 23:50:00,
2013-11-30 14:01:00,75.0,67.3,29.83,ENE,72,3.0,7.0,77,0.00,SCT,SCT,0.00,326.7,WeatherDisplay:10.37,2013-12-01 00:01:00,
2013-11-30 14:10:00,75.1,67.8,29.83,ENE,76,1.0,5.0,78,0.00,SCT,SCT,0.00,285.0,WeatherDisplay:10.37,2013-12-01 00:10:00,
2013-11-30 14:20:00,75.2,67.1,29.83,ENE,69,0.0,8.0,76,0.00,SCT,SCT,0.00,268.5,WeatherDisplay:10.37,2013-12-01 00:20:00,
2013-11-30 14:31:00,75.4,65.7,29.83,NE,56,2.0,5.0,72,0.00,SCT,SCT,0.00,205.0,WeatherDisplay:10.37,2013-12-01 00:31:00,
2013-11-30 14:40:00,75.4,65.8,29.83,NE,54,0.0,5.0,72,0.00,SCT,SCT,0.00,226.2,WeatherDisplay:10.37,2013-12-01 00:40:00,
2013-11-30 14:50:00,75.7,65.6,29.83,NE,54,0.0,3.0,71,0.00,SCT,SCT,0.00,193.3,WeatherDisplay:10.37,2013-12-01 00:50:00,
2013-11-30 15:01:00,75.5,65.4,29.83,NE,53,0.0,5.0,71,0.00,SCT,SCT,0.00,135.4,WeatherDisplay:10.37,2013-12-01 01:01:00,
2013-11-30 15:10:00,75.5,66.2,29.83,NE,53,0.0,3.0,73,0.00,SCT,SCT,0.00,98.5,WeatherDisplay:10.37,2013-12-01 01:10:00,
2013-11-30 15:20:00,75.1,65.1,29.83,NE,53,0.0,5.0,71,0.00,SCT,SCT,0.00,91.6,WeatherDisplay:10.37,2013-12-01 01:20:00,
2013-11-30 15:31:00,74.9,65.3,29.83,NE,53,0.0,5.0,72,0.00,SCT,SCT,0.00,73.7,WeatherDisplay:10.37,2013-12-01 01:31:00,
2013-11-30 15:40:00,74.7,65.1,29.83,NE,53,0.0,5.0,72,0.00,SCT,SCT,0.00,59.2,WeatherDisplay:10.37,2013-12-01 01:40:00,
2013-11-30 15:50:00,74.4,64.8,29.83,West,275,3.0,6.0,72,0.00,SCT,SCT,0.00,71.8,WeatherDisplay:10.37,2013-12-01 01:50:00,
2013-11-30 16:01:00,74.2,65.4,29.83,West,260,5.0,7.0,74,0.00,SCT,SCT,0.00,60.4,WeatherDisplay:10.37,2013-12-01 02:01:00,
2013-11-30 16:10:00,74.0,65.6,29.84,WSW,253,5.0,9.0,75,0.00,SCT,SCT,0.00,45.2,WeatherDisplay:10.37,2013-12-01 02:10:00,
2013-11-30 16:20:00,73.7,65.7,29.84,WSW,239,5.0,7.0,76,0.00,SCT,SCT,0.00,22.8,WeatherDisplay:10.37,2013-12-01 02:20:00,
2013-11-30 16:31:00,73.3,65.7,29.84,WSW,240,7.0,8.0,77,0.00,SCT,SCT,0.00,17.9,WeatherDisplay:10.37,2013-12-01 02:31:00,
2013-11-30 16:40:00,72.9,65.7,29.84,WSW,237,3.0,8.0,78,0.00,SCT,SCT,0.00,14.8,WeatherDisplay:10.37,2013-12-01 02:40:00,
2013-11-30 16:50:00,72.6,65.7,29.85,WSW,243,7.0,9.0,79,0.00,SCT,SCT,0.00,11.2,WeatherDisplay:10.37,2013-12-01 02:50:00,
2013-11-30 17:01:00,72.2,65.7,29.85,SW,224,7.0,10.0,80,0.00,SCT,SCT,0.00,6.6,WeatherDisplay:10.37,2013-12-01 03:01:00,
2013-11-30 17:10:00,72.0,65.5,29.85,SW,222,7.0,10.0,80,0.00,BKN,SCT,0.00,2.8,WeatherDisplay:10.37,2013-12-01 03:10:00,
2013-11-30 17:20:00,71.8,65.7,29.85,SW,234,7.0,12.0,81,0.00,BKN,SCT,0.00,0.5,WeatherDisplay:10.37,2013-12-01 03:20:00,
2013-11-30 17:31:00,71.6,66.2,29.85,SW,218,7.0,15.0,83,0.00,BKN,SCT,0.00,0.2,WeatherDisplay:10.37,2013-12-01 03:31:00,
2013-11-30 17:40:00,71.4,65.2,29.86,SSW,198,8.0,17.0,81,0.00,BKN,SCT,0.00,0.0,WeatherDisplay:10.37,2013-12-01 03:40:00,
2013-11-30 17:50:00,71.1,63.1,29.86,SSW,207,7.0,13.0,76,0.00,BKN,SCT,0.00,0.0,WeatherDisplay:10.37,2013-12-01 03:50:00,
2013-11-30 18:01:00,70.8,62.1,29.86,SW,216,5.0,13.0,74,0.00,BKN,SCT,0.00,0.0,WeatherDisplay:10.37,2013-12-01 04:01:00,
2013-11-30 18:10:00,70.5,61.4,29.87,SW,221,6.0,13.0,73,0.00,SCT,SCT,0.00,0.0,WeatherDisplay:10.37,2013-12-01 04:10:00,
2013-11-30 18:20:00,70.5,61.4,29.87,SW,219,7.0,14.0,73,0.00,SCT,SCT,0.00,0.0,WeatherDisplay:10.37,2013-12-01 04:20:00,
2013-11-30 18:30:00,70.3,61.6,29.87,SSW,193,7.0,13.0,74,0.00,SCT,SCT,0.00,0.0,WeatherDisplay:10.37,2013-12-01 04:30:00,
2013-11-30 18:40:00,70.2,62.3,29.88,SW,214,7.0,14.0,76,0.00,SCT,SCT,0.00,0.0,WeatherDisplay:10.37,2013-12-01 04:40:00,
2013-11-30 18:50:00,70.1,62.9,29.88,SSW,212,8.0,14.0,78,0.00,SCT,SCT,0.00,0.0,WeatherDisplay:10.37,2013-12-01 04:50:00,
2013-11-30 19:01:00,70.0,62.8,29.89,SSW,210,6.0,13.0,78,0.00,SCT,SCT,0.00,0.0,WeatherDisplay:10.37,2013-12-01 05:01:00,
2013-11-30 19:10:00,69.9,62.4,29.89,SSW,194,5.0,12.0,77,0.00,CLR,SCT,0.00,0.0,WeatherDisplay:10.37,2013-12-01 05:10:00,
2013-11-30 19:20:00,69.9,62.0,29.90,South,181,7.0,13.0,76,0.00,CLR,SCT,0.00,0.0,WeatherDisplay:10.37,2013-12-01 05:20:00,
2013-11-30 19:30:00,69.9,61.6,29.90,South,185,2.0,10.0,75,0.00,CLR,SCT,0.00,0.0,WeatherDisplay:10.37,2013-12-01 05:30:00,
2013-11-30 19:40:00,70.0,61.3,29.90,South,180,5.0,8.0,74,0.00,CLR,SCT,0.00,0.0,WeatherDisplay:10.37,2013-12-01 05:40:00,
2013-11-30 19:50:00,69.9,61.2,29.91,South,185,2.0,8.0,74,0.00,CLR,SCT,0.00,0.0,WeatherDisplay:10.37,2013-12-01 05:50:00,
2013-11-30 20:01:00,70.1,62.2,29.91,South,184,2.0,8.0,76,0.00,CLR,SCT,0.00,0.0,WeatherDisplay:10.37,2013-12-01 06:01:00,
2013-11-30 20:10:00,70.1,62.6,29.91,SSW,195,1.0,6.0,77,0.00,FEW,SCT,0.00,0.0,WeatherDisplay:10.37,2013-12-01 06:10:00,
2013-11-30 20:20:00,69.8,61.5,29.91,SSW,193,0.0,4.0,75,0.00,FEW,SCT,0.00,0.0,WeatherDisplay:10.37,2013-12-01 06:20:00,
2013-11-30 20:30:00,69.4,60.4,29.91,South,186,0.0,3.0,73,0.00,FEW,SCT,0.00,0.0,WeatherDisplay:10.37,2013-12-01 06:30:00,
2013-11-30 20:40:00,69.0,60.0,29.91,South,185,0.0,0.0,73,0.00,FEW,SCT,0.00,0.0,WeatherDisplay:10.37,2013-12-01 06:40:00,
2013-11-30 20:50:00,68.6,59.6,29.91,South,185,0.0,0.0,73,0.00,FEW,SCT,0.00,0.0,WeatherDisplay:10.37,2013-12-01 06:50:00,
2013-11-30 21:01:00,68.2,60.0,29.92,South,185,0.0,0.0,75,0.00,FEW,SCT,0.00,0.0,WeatherDisplay:10.37,2013-12-01 07:01:00,
2013-11-30 21:10:00,67.9,59.7,29.92,SE,140,2.0,4.0,75,0.00,FEW,SCT,0.00,0.0,WeatherDisplay:10.37,2013-12-01 07:10:00,
2013-11-30 21:20:00,68.0,60.9,29.90,ENE,77,1.0,4.0,78,0.00,FEW,SCT,0.00,0.0,WeatherDisplay:10.37,2013-12-01 07:20:00,
2013-11-30 21:30:00,68.1,61.3,29.91,ENE,77,1.0,4.0,79,0.00,FEW,SCT,0.00,0.0,WeatherDisplay:10.37,2013-12-01 07:30:00,
2013-11-30 21:40:00,68.0,60.9,29.91,East,86,0.0,6.0,78,0.00,FEW,SCT,0.00,0.0,WeatherDisplay:10.37,2013-12-01 07:40:00,
2013-11-30 21:50:00,67.9,60.4,29.91,East,97,0.0,2.0,77,0.00,FEW,SCT,0.00,0.0,WeatherDisplay:10.37,2013-12-01 07:50:00,
2013-11-30 22:01:00,68.0,60.5,29.90,East,97,3.0,4.0,77,0.00,FEW,SCT,0.00,0.0,WeatherDisplay:10.37,2013-12-01 08:01:00,
2013-11-30 22:10:00,68.5,59.9,29.89,East,101,2.0,6.0,74,0.00,CLR,SCT,0.00,0.0,WeatherDisplay:10.37,2013-12-01 08:10:00,
2013-11-30 22:20:00,68.5,59.9,29.90,ESE,113,0.0,5.0,74,0.00,CLR,SCT,0.00,0.0,WeatherDisplay:10.37,2013-12-01 08:20:00,
2013-11-30 22:30:00,68.3,60.4,29.91,ESE,113,0.0,0.0,76,0.00,CLR,SCT,0.00,0.0,WeatherDisplay:10.37,2013-12-01 08:30:00,
2013-11-30 22:40:00,68.1,61.0,29.90,ESE,113,0.0,1.0,78,0.00,CLR,SCT,0.00,0.0,WeatherDisplay:10.37,2013-12-01 08:40:00,
2013-11-30 22:50:00,68.0,61.6,29.91,ESE,113,2.0,4.0,80,0.00,CLR,SCT,0.00,0.0,WeatherDisplay:10.37,2013-12-01 08:50:00,
2013-11-30 23:01:00,68.0,61.6,29.91,ESE,115,0.0,5.0,80,0.00,CLR,SCT,0.00,0.0,WeatherDisplay:10.37,2013-12-01 09:01:00,
2013-11-30 23:10:00,68.0,61.6,29.92,SE,130,3.0,5.0,80,0.00,CLR,SCT,0.00,0.0,WeatherDisplay:10.37,2013-12-01 09:10:00,
2013-11-30 23:20:00,68.1,61.7,29.91,SSE,162,3.0,7.0,80,0.00,CLR,SCT,0.00,0.0,WeatherDisplay:10.37,2013-12-01 09:20:00,
2013-11-30 23:30:00,68.6,61.8,29.90,South,178,1.0,10.0,79,0.00,CLR,SCT,0.00,0.0,WeatherDisplay:10.37,2013-12-01 09:30:00,
2013-11-30 23:40:00,68.8,62.1,29.90,SSE,167,6.0,8.0,79,0.00,CLR,SCT,0.00,0.0,WeatherDisplay:10.37,2013-12-01 09:40:00,
2013-11-30 23:50:00,69.0,62.9,29.91,SSE,164,5.0,7.0,81,0.00,CLR,SCT,0.00,0.0,WeatherDisplay:10.37,2013-12-01 09:50:00,